| time (UTC) | temp F | wind direction | speed knots | gust knots | rain 1hr in | rain 24hr in | rain mn in | humidity % | barometer mb |
| 20260906021606 | 85 | 34 | 4.3 | 9.6 | 0.00 | 0.00 | 0.00 | 79 | 1013.4 |
| 20260906014602 | 87 | 86 | 1.7 | 7.0 | 0.00 | 0.00 | 0.00 | 78 | 1012.9 |
| 20260906013058 | 87 | 44 | 2.6 | 7.8 | 0.00 | 0.00 | 0.00 | 78 | 1012.9 |
| 20260906011555 | 87 | 42 | 0.9 | 4.3 | 0.00 | 0.00 | 0.00 | 77 | 1012.7 |
| 20260906010140 | 88 | 48 | 1.7 | 3.5 | 0.00 | 0.00 | 0.00 | 76 | 1012.6 |
| 20260906004616 | 88 | 69 | 0.0 | 1.7 | 0.00 | 0.00 | 0.00 | 74 | 1012.3 |
| 20260906003102 | 89 | 0 | 0.9 | 3.5 | 0.00 | 0.00 | 0.00 | 73 | 1012.1 |
| 20260906001607 | 89 | 63 | 0.9 | 3.5 | 0.00 | 0.00 | 0.00 | 72 | 1012.2 |
| 20260906000100 | 90 | 29 | 1.7 | 5.2 | 0.00 | 0.00 | 0.00 | 71 | 1012.2 |
| 20260905234604 | 91 | 58 | 0.9 | 3.5 | 0.00 | 0.00 | 0.00 | 70 | 1012.2 |
| 20260905233059 | 92 | 64 | 0.9 | 8.7 | 0.00 | 0.00 | 0.00 | 67 | 1012.5 |
| 20260905231559 | 93 | 40 | 0.9 | 7.0 | 0.00 | 0.00 | 0.00 | 64 | 1012.4 |
| 20260905224602 | 94 | 15 | 2.6 | 7.0 | 0.00 | 0.00 | 0.00 | 62 | 1012.2 |
| 20260905223104 | 94 | 355 | 0.9 | 5.2 | 0.00 | 0.00 | 0.00 | 63 | 1012.2 |
| 20260905221608 | 94 | 42 | 2.6 | 7.8 | 0.00 | 0.00 | 0.00 | 61 | 1012.1 |
| 20260905220100 | 95 | 0 | 1.7 | 8.7 | 0.00 | 0.00 | 0.00 | 61 | 1012.1 |
| 20260905214601 | 96 | 30 | 1.7 | 8.7 | 0.00 | 0.00 | 0.00 | 59 | 1012.1 |
| 20260905213101 | 97 | 53 | 1.7 | 5.2 | 0.00 | 0.00 | 0.00 | 58 | 1012.1 |
| 20260905211607 | 97 | 22 | 1.7 | 9.6 | 0.00 | 0.00 | 0.00 | 59 | 1012.2 |
| 20260905210120 | 96 | 355 | 1.7 | 7.0 | 0.00 | 0.00 | 0.00 | 58 | 1012.2 |
| 20260905204602 | 96 | 43 | 1.7 | 7.0 | 0.00 | 0.00 | 0.00 | 58 | 1012.3 |
| 20260905203058 | 97 | 306 | 0.9 | 5.2 | 0.00 | 0.00 | 0.00 | 56 | 1012.5 |
| 20260905201559 | 98 | 5 | 1.7 | 7.0 | 0.00 | 0.00 | 0.00 | 55 | 1012.5 |
| 20260905200122 | 98 | 28 | 2.6 | 7.8 | 0.00 | 0.00 | 0.00 | 53 | 1012.5 |
| 20260905194603 | 98 | 290 | 2.6 | 7.8 | 0.00 | 0.00 | 0.00 | 53 | 1012.7 |
| 20260905193102 | 98 | 28 | 0.9 | 7.8 | 0.00 | 0.00 | 0.00 | 56 | 1012.7 |
| 20260905191602 | 97 | 26 | 1.7 | 9.6 | 0.00 | 0.00 | 0.00 | 55 | 1012.8 |
| 20260905190104 | 97 | 36 | 1.7 | 8.7 | 0.00 | 0.00 | 0.00 | 56 | 1013.0 |
| 20260905184611 | 97 | 277 | 0.9 | 3.5 | 0.00 | 0.00 | 0.00 | 55 | 1013.1 |
| 20260905183107 | 96 | 268 | 1.7 | 5.2 | 0.00 | 0.00 | 0.00 | 57 | 1013.3 |
| 20260905181604 | 95 | 5 | 1.7 | 6.1 | 0.00 | 0.00 | 0.00 | 60 | 1013.4 |
| 20260905174603 | 94 | 30 | 2.6 | 6.1 | 0.00 | 0.00 | 0.00 | 58 | 1013.6 |
| 20260905173103 | 94 | 312 | 2.6 | 7.0 | 0.00 | 0.00 | 0.00 | 58 | 1013.6 |
| 20260905171602 | 93 | 313 | 0.9 | 6.1 | 0.00 | 0.00 | 0.00 | 59 | 1013.7 |
| 20260905170100 | 92 | 284 | 0.9 | 5.2 | 0.00 | 0.00 | 0.00 | 61 | 1013.9 |
| 20260905164557 | 92 | 51 | 0.9 | 5.2 | 0.00 | 0.00 | 0.00 | 62 | 1014.0 |
| 20260905163104 | 92 | 44 | 0.9 | 4.3 | 0.00 | 0.00 | 0.00 | 64 | 1014.0 |
| 20260905161557 | 92 | 360 | 0.9 | 5.2 | 0.00 | 0.00 | 0.00 | 65 | 1014.0 |
| 20260905160059 | 92 | 30 | 0.9 | 4.3 | 0.00 | 0.00 | 0.00 | 65 | 1014.2 |
| 20260905154605 | 91 | 257 | 0.0 | 3.5 | 0.00 | 0.00 | 0.00 | 65 | 1014.1 |
| 20260905153103 | 91 | 311 | 0.9 | 2.6 | 0.00 | 0.00 | 0.00 | 63 | 1014.0 |
| 20260905151628 | 91 | 284 | 0.9 | 4.3 | 0.00 | 0.00 | 0.00 | 64 | 1013.9 |
| 20260905150058 | 90 | 0 | 0.0 | 2.6 | 0.00 | 0.00 | 0.00 | 67 | 1013.8 |
| 20260905144558 | 88 | 252 | 0.0 | 2.6 | 0.00 | 0.00 | 0.00 | 70 | 1013.8 |
| 20260905143103 | 86 | 0 | 0.0 | 3.5 | 0.00 | 0.00 | 0.00 | 72 | 1013.9 |
| 20260905141558 | 85 | 275 | 1.7 | 5.2 | 0.00 | 0.00 | 0.00 | 74 | 1013.9 |
| 20260905140058 | 82 | 334 | 0.9 | 2.6 | 0.00 | 0.00 | 0.00 | 80 | 1014.0 |
| 20260905134604 | 80 | 0 | 0.0 | 1.7 | 0.00 | 0.00 | 0.00 | 85 | 1013.9 |
| 20260905133056 | 78 | 38 | 0.0 | 0.9 | 0.00 | 0.00 | 0.00 | 90 | 1013.9 |
| 20260905131609 | 76 | 0 | 0.0 | 0.0 | 0.00 | 0.00 | 0.00 | 92 | 1014.0 |
| 20260905130100 | 75 | 0 | 0.0 | 1.7 | 0.00 | 0.00 | 0.00 | 92 | 1013.9 |
| 20260905124605 | 75 | 0 | 0.0 | 0.0 | 0.00 | 0.00 | 0.00 | 93 | 1013.9 |
| 20260905123111 | 74 | 0 | 0.0 | 0.0 | 0.00 | 0.00 | 0.00 | 93 | 1013.7 |
| 20260905121605 | 74 | 0 | 0.0 | 0.0 | 0.00 | 0.00 | 0.00 | 93 | 1013.6 |
| 20260905120058 | 73 | 0 | 0.0 | 0.9 | 0.00 | 0.00 | 0.00 | 92 | 1013.5 |
| 20260905114604 | 73 | 0 | 0.0 | 0.9 | 0.00 | 0.00 | 0.00 | 92 | 1013.3 |
| 20260905113055 | 73 | 0 | 0.0 | 0.0 | 0.00 | 0.00 | 0.00 | 92 | 1013.2 |
| 20260905111605 | 73 | 0 | 0.0 | 0.9 | 0.00 | 0.00 | 0.00 | 91 | 1013.1 |
| 20260905110056 | 74 | 0 | 0.0 | 0.0 | 0.00 | 0.00 | 0.00 | 91 | 1013.2 |
| 20260905104558 | 74 | 0 | 0.0 | 0.9 | 0.00 | 0.00 | 0.00 | 91 | 1013.1 |
| 20260905103107 | 74 | 0 | 0.0 | 0.0 | 0.00 | 0.00 | 0.00 | 91 | 1013.2 |
| 20260905101604 | 74 | 0 | 0.0 | 1.7 | 0.00 | 0.00 | 0.00 | 90 | 1013.2 |
| 20260905100107 | 74 | 360 | 0.0 | 1.7 | 0.00 | 0.00 | 0.00 | 91 | 1013.2 |
| 20260905094555 | 75 | 0 | 0.0 | 0.9 | 0.00 | 0.00 | 0.00 | 91 | 1013.1 |
| 20260905093104 | 75 | 0 | 0.0 | 0.9 | 0.00 | 0.00 | 0.00 | 91 | 1013.2 |
| 20260905091605 | 75 | 0 | 0.0 | 0.9 | 0.00 | 0.00 | 0.00 | 90 | 1013.2 |
| 20260905084612 | 75 | 0 | 0.0 | 0.0 | 0.00 | 0.00 | 0.00 | 89 | 1013.3 |
| 20260905083059 | 76 | 0 | 0.0 | 0.9 | 0.00 | 0.00 | 0.00 | 89 | 1013.4 |
| 20260905081605 | 76 | 0 | 0.0 | 0.9 | 0.00 | 0.00 | 0.00 | 89 | 1013.5 |
| 20260905080255 | 76 | 0 | 0.0 | 0.0 | 0.00 | 0.00 | 0.00 | 89 | 1013.6 |
| 20260905080203 | 76 | 0 | 0.0 | 0.0 | 0.00 | 0.00 | 0.00 | 89 | 1013.6 |
| 20260905074606 | 76 | 0 | 0.0 | 0.0 | 0.00 | 0.00 | 0.00 | 89 | 1013.5 |
| 20260905073059 | 77 | 0 | 0.0 | 0.0 | 0.00 | 0.00 | 0.00 | 89 | 1013.5 |
| 20260905071607 | 77 | 0 | 0.0 | 0.0 | 0.00 | 0.00 | 0.00 | 89 | 1013.5 |
| 20260905070105 | 77 | 0 | 0.0 | 0.9 | 0.00 | 0.00 | 0.00 | 89 | 1013.4 |
| 20260905064612 | 77 | 37 | 0.0 | 0.0 | 0.00 | 0.00 | 0.00 | 89 | 1013.4 |
| 20260905063058 | 77 | 0 | 0.0 | 0.0 | 0.00 | 0.00 | 0.00 | 88 | 1013.5 |
| 20260905061600 | 78 | 0 | 0.0 | 1.7 | 0.00 | 0.00 | 0.00 | 88 | 1013.5 |
| 20260905060104 | 78 | 0 | 0.0 | 0.0 | 0.00 | 0.00 | 0.00 | 88 | 1013.6 |
| 20260905054616 | 78 | 0 | 0.0 | 0.9 | 0.00 | 0.00 | 0.00 | 88 | 1013.5 |
| 20260905053109 | 78 | 0 | 0.0 | 1.7 | 0.00 | 0.00 | 0.00 | 88 | 1013.5 |
| 20260905051600 | 79 | 0 | 0.0 | 1.7 | 0.00 | 0.00 | 0.00 | 88 | 1013.7 |
| 20260905050059 | 79 | 0 | 0.0 | 0.9 | 0.00 | 0.00 | 0.00 | 89 | 1013.5 |
| 20260905044606 | 80 | 0 | 0.0 | 0.0 | 0.00 | 0.00 | 0.00 | 89 | 1013.6 |
| 20260905043112 | 80 | 0 | 0.0 | 0.0 | 0.00 | 0.00 | 0.00 | 88 | 1013.7 |
| 20260905041554 | 80 | 0 | 0.0 | 0.9 | 0.00 | 0.00 | 0.00 | 87 | 1013.8 |
| 20260905040106 | 80 | 0 | 0.0 | 0.0 | 0.00 | 0.00 | 0.00 | 87 | 1013.7 |
| 20260905034603 | 80 | 0 | 0.0 | 0.0 | 0.00 | 0.00 | 0.00 | 86 | 1013.6 |
| 20260905033057 | 81 | 0 | 0.0 | 0.0 | 0.00 | 0.00 | 0.00 | 85 | 1013.7 |
| 20260905031604 | 81 | 0 | 0.0 | 0.0 | 0.00 | 0.00 | 0.00 | 84 | 1013.6 |
| 20260905030104 | 82 | 0 | 0.0 | 0.0 | 0.00 | 0.00 | 0.00 | 84 | 1013.6 |
| 20260905024606 | 82 | 0 | 0.0 | 0.0 | 0.00 | 0.00 | 0.00 | 85 | 1013.5 |
| 20260905023107 | 82 | 0 | 0.0 | 0.0 | 0.00 | 0.00 | 0.00 | 83 | 1013.5 |